Location: Boćki
(52.6512°N, 23.0459°E)
Time: 02:02:12
(UTC+02:00)

ISS - Pass Details

Date: 27 March 2019
Orbit: 408 x 410 km, 51.6° (Epoch: 24 April)

Event Time Altitude Azimuth Distance (km) Brightness Sun altitude
Rises 18:34:01 0° 242° (WSW) 2,333 0.8 -7.0°
Reaches altitude 10° 18:36:08 10° 236° (SW) 1,473 -0.3 -7.3°
Maximum altitude 18:39:19 48° 161° (SSE) 547 -3.4 -7.8°
Enters shadow 18:42:30 10° 86° (E) 1,463 -1.6 -8.2°
